FW4191 Weather Reports


time (UTC)temp
F
wind
direction
speed
knots
gust
knots
rain 1hr
in
rain 24hr
in
rain mn
in
humidity
%
barometer
mb
20260505010116 70 214 2.6 7.0 0.00 0.00 0.00 51 1069.1
20260505005118 70 115 0.0 1.7 0.00 0.00 0.00 50 1069.1
20260505003117 72 221 0.0 1.7 0.00 0.00 0.00 48 1069.2
20260505003017 72 200 0.9 3.5 0.00 0.00 0.00 47 1069.2
20260505002017 72 212 0.9 2.6 0.00 0.00 0.00 46 1069.3
20260505001917 72 297 0.0 2.6 0.00 0.00 0.00 46 1069.3
20260505001818 72 194 0.0 2.6 0.00 0.00 0.00 47 1069.2
20260505001718 72 222 3.5 8.7 0.00 0.00 0.00 47 1069.2
20260505000817 73 238 1.7 4.3 0.00 0.00 0.00 45 1069.3
20260504234719 74 194 3.5 7.0 0.00 0.00 0.00 46 1069.5
20260504233718 74 223 2.6 4.3 0.00 0.00 0.00 46 1069.7
20260504232816 74 298 1.7 3.5 0.00 0.00 0.00 48 1069.6
20260504231817 73 203 0.9 3.5 0.00 0.00 0.00 52 1069.6
20260504230816 74 225 0.0 0.0 0.00 0.00 0.00 50 1069.7
20260504225831 74 225 0.0 0.0 0.00 0.00 0.00 49 1069.9
20260504224919 74 247 0.0 0.0 0.00 0.00 0.00 47 1069.9
20260504221919 74 224 1.7 4.3 0.00 0.00 0.00 50 1070.1
20260504221016 73 167 0.0 1.7 0.00 0.00 0.00 52 1070.5
20260504220918 73 247 0.0 0.0 0.00 0.00 0.00 52 1070.5
20260504215017 73 273 0.0 0.0 0.00 0.00 0.00 51 1070.6
20260504212017 74 291 0.0 0.0 0.00 0.00 0.00 52 1071.0
20260504210036 73 203 1.7 4.3 0.00 0.00 0.00 52 1071.3
20260504205118 73 351 0.0 2.6 0.00 0.00 0.00 53 1071.2
20260504205017 73 202 0.0 0.0 0.00 0.00 0.00 53 1071.3
20260504204933 73 202 0.0 0.9 0.00 0.00 0.00 52 1071.3
20260504203931 72 236 1.7 7.8 0.00 0.00 0.00 52 1071.7
20260504203818 73 268 0.9 3.5 0.00 0.00 0.00 52 1071.6
20260504202917 73 234 1.7 5.2 0.00 0.00 0.00 53 1071.8
20260504201916 72 272 0.0 2.6 0.00 0.00 0.00 58 1071.9
20260504200918 70 258 0.9 3.5 0.00 0.00 0.00 60 1071.6
20260504200818 70 222 0.9 4.3 0.00 0.00 0.00 60 1071.6
20260504195916 68 202 0.0 1.7 0.00 0.00 0.00 64 1071.8
20260504193919 65 216 0.0 1.7 0.00 0.00 0.00 69 1072.3
20260504192919 64 67 0.9 1.7 0.00 0.00 0.00 69 1072.2
20260504191918 65 180 0.0 0.0 0.00 0.00 0.00 66 1073.2
20260504191016 66 202 0.0 1.7 0.00 0.00 0.00 60 1072.8
20260504190016 67 236 0.0 0.9 0.00 0.00 0.00 60 1073.7
20260504185017 67 233 4.3 7.8 0.00 0.00 0.00 58 1073.3
20260504184934 68 242 2.6 6.1 0.00 0.00 0.00 58 1073.3
20260504183115 69 215 2.6 5.2 0.00 0.00 0.00 54 1072.9
20260504183036 69 232 3.5 7.0 0.00 0.00 0.00 53 1072.9
20260504182117 70 271 0.9 5.2 0.00 0.00 0.00 53 1072.5
20260504181117 71 258 1.7 3.5 0.00 0.00 0.00 56 1072.2
20260504180117 71 215 4.3 7.8 0.00 0.00 0.00 57 1072.1
20260504174116 69 211 0.9 3.5 0.00 0.00 0.00 57 1072.3
20260504172016 68 242 0.9 4.3 0.00 0.00 0.00 59 1072.2
20260504171034 67 186 0.0 0.9 0.00 0.00 0.00 59 1072.3
20260504170116 67 205 1.7 4.3 0.00 0.00 0.00 59 1072.4
20260504160115 67 252 2.6 4.3 0.00 0.00 0.00 58 1073.1
20260504151118 64 221 3.5 7.0 0.00 0.00 0.00 59 1073.3
20260504141315 61 222 1.7 6.1 0.00 0.01 0.00 64 1073.6
20260504140317 60 231 4.3 6.1 0.00 0.02 0.00 66 1073.8
20260504130316 55 209 0.0 0.9 0.00 0.24 0.00 69 1074.0
20260504130216 55 250 0.0 1.7 0.00 0.25 0.00 69 1074.0
20260504120316 51 302 0.0 0.0 0.00 0.30 0.00 73 1073.8
20260504110316 46 337 0.0 0.0 0.00 0.30 0.00 82 1073.6
20260504100415 45 202 0.0 0.0 0.00 0.30 0.00 78 1073.9
20260504080316 49 218 0.0 2.6 0.00 0.30 0.00 67 1074.7
20260504050516 49 294 0.0 0.9 0.00 0.30 0.00 64 1076.5
20260504045615 49 315 0.0 0.0 0.00 0.30 0.00 63 1076.6
20260504043617 50 202 0.0 0.0 0.00 0.30 0.00 61 1076.6
20260504043515 50 202 0.0 0.0 0.00 0.30 0.00 60 1076.6
20260504042517 51 225 0.0 0.0 0.00 0.30 0.00 58 1076.7
20260504041517 52 3 0.0 0.0 0.00 0.30 0.00 57 1076.8
20260504035517 53 225 0.0 0.9 0.00 0.30 0.30 56 1077.1
20260504034533 54 313 0.0 0.9 0.00 0.30 0.30 54 1077.2
20260504032516 54 180 0.0 0.0 0.00 0.31 0.30 54 1077.3
20260504032416 54 167 0.0 0.0 0.00 0.31 0.30 55 1077.3
20260504030514 54 225 0.0 0.0 0.00 0.31 0.30 53 1077.4
20260504025532 54 263 0.0 0.9 0.00 0.31 0.30 52 1077.5
20260504024516 54 202 0.0 0.0 0.00 0.31 0.30 52 1077.7
20260504023614 55 202 0.0 0.0 0.00 0.31 0.30 50 1077.7
20260504022714 55 202 0.0 0.0 0.00 0.31 0.30 48 1077.8
20260504020815 55 202 0.9 2.6 0.00 0.31 0.30 48 1077.8
20260504020716 55 180 0.0 2.6 0.00 0.31 0.30 49 1077.8
20260504015716 55 225 0.0 0.0 0.00 0.31 0.30 49 1077.7
20260504015616 55 230 0.9 1.7 0.00 0.31 0.30 49 1077.6
20260504014614 55 225 0.0 0.0 0.00 0.31 0.30 49 1077.3
20260504013614 55 202 0.0 0.9 0.00 0.31 0.30 48 1077.3
20260504012615 55 71 0.0 0.0 0.00 0.31 0.30 50 1077.2
20260504012530 55 67 0.0 0.0 0.00 0.31 0.30 50 1077.3
20260504011614 55 218 0.0 0.0 0.00 0.31 0.30 49 1077.2